La Grange, TX

4:20 PM CST on November 13, 2019 (GMT -0600)
La Grange

Weather History for K3T5 - October, 2019

Change the Weather History Date:

Wednesday, October 23, 2019

  Actual Average (KAUS) Record (KAUS)
Temperature  
Mean Temperature 69 °F -  
Max Temperature 87 °F 77 °F 92 °F (1991)
Min Temperature 52 °F 56 °F 38 °F (1945)
Cooling Degree Days 4    
Growing Degree Days 19 (Base 50)    
Moisture  
Dew Point 54 °F    
Average Humidity 59    
Maximum Humidity 86    
Minimum Humidity 36    
Precipitation  
Precipitation 0.00 in - - ()
Sea Level Pressure  
Sea Level Pressure 30.03 in    
Wind  
Wind Speed 6 mph (SSE)    
Max Wind Speed 18 mph    
Max Gust Speed 26 mph    
Visibility 10 miles    
Events      
Averages and records for this station are not official NWS values.
T = Trace of Precipitation, MM = Missing Value Source: NWS Daily Summary

Daily Weather History Graph

Daily Weather History Graph

Search for Another Location

Airport or City:

Astronomy

Oct. 23, 2019 Rise Set
Actual Time 7:34 AM CDT 6:48 PM CDT
Civil Twilight 7:10 AM CDT 7:13 PM CDT
Nautical Twilight 6:42 AM CDT 7:41 PM CDT
Astronomical Twilight 6:14 AM CDT 8:09 PM CDT
Moon 2:26 AM CDT (10/23) 4:11 PM CDT (10/23)
Length of Visible Light 12h 02m
Length of Day
11h 14m
Waning Crescent, 26% of the Moon is Illuminated
Oct 23
Waning Crescent
Oct 27
New
Nov 4
First Quarter
Nov 12
Full
Nov 19
Last Quarter

Hourly Weather History & Observations

Time (CDT) Temp. Heat Index Dew Point Humidity Pressure Visibility Wind Dir Wind Speed Gust Speed Precip Events Conditions
12:15 AM 57.9 °F - 44.6 °F 61% 30.10 in 10.0 mi SSE 4.6 mph - N/A   Clear
12:35 AM 57.4 °F - 45.0 °F 63% 30.10 in 10.0 mi SSE 3.5 mph - N/A   Clear
12:55 AM 57.9 °F - 46.2 °F 65% 30.10 in 10.0 mi Calm Calm - N/A   Clear
1:15 AM 56.5 °F - 45.5 °F 67% 30.10 in 10.0 mi SSE 4.6 mph - N/A   Clear
1:35 AM 57.4 °F - 46.0 °F 66% 30.10 in 10.0 mi SSE 4.6 mph - N/A   Clear
1:55 AM 57.2 °F - 45.9 °F 66% 30.10 in 10.0 mi SSE 3.5 mph - N/A   Clear
2:15 AM 55.9 °F - 46.2 °F 70% 30.10 in 10.0 mi Calm Calm - N/A   Clear
2:35 AM 56.3 °F - 45.9 °F 68% 30.10 in 10.0 mi Calm Calm - N/A   Clear
2:55 AM 55.0 °F - 46.2 °F 72% 30.09 in 10.0 mi SSE 3.5 mph - N/A   Clear
3:15 AM 56.3 °F - 46.4 °F 69% 30.09 in 10.0 mi Calm Calm - N/A   Clear
3:35 AM 53.8 °F - 47.8 °F 80% 30.09 in 10.0 mi Calm Calm - N/A   Clear
3:55 AM 55.0 °F - 47.1 °F 75% 30.08 in 10.0 mi Calm Calm - N/A   Clear
4:15 AM 53.2 °F - 47.1 °F 80% 30.08 in 10.0 mi Calm Calm - N/A   Clear
4:35 AM 53.4 °F - 47.1 °F 79% 30.08 in 10.0 mi Calm Calm - N/A   Clear
4:55 AM 53.8 °F - 47.3 °F 79% 30.08 in 10.0 mi Calm Calm - N/A   Clear
5:15 AM 53.2 °F - 47.5 °F 81% 30.08 in 10.0 mi Calm Calm - N/A   Clear
5:35 AM 52.7 °F - 47.8 °F 84% 30.07 in 10.0 mi Calm Calm - N/A   Clear
5:55 AM 52.7 °F - 48.2 °F 85% 30.07 in 10.0 mi Calm Calm - N/A   Clear
6:15 AM 52.3 °F - 48.2 °F 86% 30.07 in 10.0 mi Calm Calm - N/A   Clear
6:35 AM 54.0 °F - 48.9 °F 83% 30.07 in 10.0 mi ESE 3.5 mph - N/A   Clear
6:55 AM 58.5 °F - 48.9 °F 71% 30.06 in 10.0 mi ESE 3.5 mph - N/A   Clear
7:15 AM 59.7 °F - 48.6 °F 67% 30.06 in 10.0 mi ESE 3.5 mph - N/A   Clear
7:35 AM 59.7 °F - 49.1 °F 68% 30.06 in 10.0 mi ESE 4.6 mph - N/A   Clear
7:55 AM 59.9 °F - 49.5 °F 68% 30.07 in 10.0 mi ESE 4.6 mph - N/A   Clear
8:15 AM 60.4 °F - 49.8 °F 68% 30.08 in 10.0 mi ESE 3.5 mph - N/A   Clear
8:35 AM 61.2 °F - 50.5 °F 68% 30.08 in 10.0 mi ESE 3.5 mph - N/A   Clear
8:55 AM 63.1 °F - 52.2 °F 67% 30.08 in 10.0 mi Calm Calm - N/A   Clear
9:15 AM 65.8 °F - 53.2 °F 64% 30.08 in 10.0 mi Calm Calm - N/A   Clear
9:35 AM 68.2 °F - 53.8 °F 60% 30.09 in 10.0 mi SSE 8.1 mph - N/A   Clear
9:55 AM 70.0 °F - 54.7 °F 58% 30.09 in 10.0 mi SE 4.6 mph - N/A   Clear
10:15 AM 72.5 °F - 55.6 °F 55% 30.09 in 10.0 mi SE 5.8 mph - N/A   Clear
10:35 AM 76.3 °F - 56.5 °F 50% 30.09 in 10.0 mi SSE 9.2 mph - N/A   Clear
10:55 AM 78.4 °F - 55.8 °F 45% 30.08 in 7.0 mi SSE 13.8 mph 19.6 mph N/A   Clear
11:15 AM 80.1 °F 80.4 °F 57.0 °F 45% 30.08 in 10.0 mi SSE 9.2 mph - N/A   Clear
11:35 AM 80.2 °F 80.5 °F 56.8 °F 45% 30.08 in 10.0 mi South 16.1 mph 21.9 mph N/A   Clear
11:55 AM 81.5 °F 81.5 °F 57.6 °F 44% 30.07 in 10.0 mi South 16.1 mph 20.7 mph N/A   Clear
12:15 PM 81.9 °F 81.4 °F 55.8 °F 41% 30.07 in 10.0 mi SSE 13.8 mph 24.2 mph N/A   Clear
12:35 PM 82.6 °F 82.0 °F 56.1 °F 40% 30.06 in 10.0 mi South 16.1 mph 23.0 mph N/A   Clear
12:55 PM 83.3 °F 82.6 °F 56.7 °F 40% 30.05 in 10.0 mi South 11.5 mph 20.7 mph N/A   Clear
1:15 PM 84.4 °F 83.5 °F 56.8 °F 39% 30.04 in 10.0 mi South 12.7 mph 23.0 mph N/A   Clear
1:35 PM 84.4 °F 83.5 °F 57.0 °F 39% 30.02 in 10.0 mi South 13.8 mph 23.0 mph N/A   Clear
1:55 PM 84.7 °F 83.9 °F 57.0 °F 39% 30.01 in 10.0 mi South 15.0 mph 23.0 mph N/A   Scattered Clouds
2:15 PM 85.5 °F 84.5 °F 56.8 °F 38% 30.00 in 10.0 mi SSE 17.3 mph 25.3 mph N/A   Clear
2:35 PM 86.0 °F 84.9 °F 57.2 °F 37% 29.99 in 10.0 mi SSE 12.7 mph 20.7 mph N/A   Scattered Clouds
2:55 PM 86.2 °F 85.0 °F 56.8 °F 37% 29.97 in 10.0 mi South 16.1 mph 21.9 mph N/A   Scattered Clouds
3:15 PM 86.2 °F 85.0 °F 57.0 °F 37% 29.96 in 10.0 mi SSE 13.8 mph 23.0 mph N/A   Scattered Clouds
3:35 PM 85.8 °F 84.7 °F 56.7 °F 37% 29.96 in 10.0 mi South 13.8 mph 26.5 mph N/A   Scattered Clouds
3:55 PM 86.0 °F 84.7 °F 56.3 °F 36% 29.96 in 10.0 mi South 15.0 mph 21.9 mph N/A   Scattered Clouds
4:15 PM 84.9 °F 83.9 °F 56.8 °F 38% 29.95 in 10.0 mi South 18.4 mph 25.3 mph N/A   Clear
4:35 PM 84.4 °F 83.5 °F 57.2 °F 39% 29.95 in 10.0 mi SSE 10.4 mph 18.4 mph N/A   Scattered Clouds
4:55 PM 83.8 °F 83.1 °F 57.0 °F 40% 29.95 in 10.0 mi SSE 12.7 mph 25.3 mph N/A   Clear
5:15 PM 83.1 °F 82.4 °F 56.5 °F 40% 29.95 in 10.0 mi SSE 15.0 mph 21.9 mph N/A   Clear
5:35 PM 83.3 °F 82.6 °F 56.7 °F 40% 29.95 in 10.0 mi South 15.0 mph 21.9 mph N/A   Clear
5:55 PM 82.4 °F 82.0 °F 57.0 °F 42% 29.95 in 10.0 mi SSE 15.0 mph 20.7 mph N/A   Clear
6:15 PM 81.0 °F 81.1 °F 57.7 °F 45% 29.95 in 10.0 mi SSE 9.2 mph - N/A   Clear
6:35 PM 79.9 °F - 57.6 °F 46% 29.95 in 10.0 mi SSE 11.5 mph 20.7 mph N/A   Clear
6:55 PM 78.3 °F - 58.1 °F 50% 29.96 in 10.0 mi SSE 9.2 mph - N/A   Clear
7:15 PM 77.0 °F - 58.8 °F 53% 29.96 in 10.0 mi SSE 10.4 mph - N/A   Clear
7:35 PM 76.3 °F - 59.4 °F 56% 29.97 in 10.0 mi SSE 9.2 mph - N/A   Clear
7:55 PM 75.4 °F - 59.9 °F 58% 29.98 in 10.0 mi SSE 8.1 mph - N/A   Clear
8:15 PM 74.5 °F - 59.9 °F 60% 29.99 in 10.0 mi SE 6.9 mph - N/A   Clear
8:55 PM 73.0 °F - 60.1 °F 64% 29.99 in 10.0 mi SE 5.8 mph - N/A   Clear
9:15 PM 72.5 °F - 59.9 °F 64% 29.99 in 10.0 mi SSE 6.9 mph - N/A   Clear
9:35 PM 72.0 °F - 59.9 °F 66% 30.00 in 10.0 mi SSE 4.6 mph - N/A   Clear
9:55 PM 71.6 °F - 59.9 °F 66% 30.00 in 10.0 mi SE 6.9 mph - N/A   Clear
10:15 PM 71.2 °F - 59.9 °F 67% 30.00 in 10.0 mi SE 5.8 mph - N/A   Clear
10:35 PM 70.7 °F - 60.1 °F 69% 30.00 in 10.0 mi SE 6.9 mph - N/A   Clear
10:55 PM 70.2 °F - 60.3 °F 71% 30.00 in 10.0 mi SE 9.2 mph - N/A   Clear
11:15 PM 69.6 °F - 60.8 °F 73% 29.99 in 10.0 mi SE 8.1 mph - N/A   Clear
11:35 PM 69.1 °F - 60.8 °F 75% 29.99 in 10.0 mi SE 8.1 mph - N/A   Clear
11:55 PM 68.7 °F - 61.2 °F 77% 29.98 in 10.0 mi SSE 6.9 mph - N/A   Clear